indice_tiempo,oferta_global_pib,oferta_global_importacion,oferta_global_total,demanda_global_consumo_priv,demanda_global_consumo_publico,demanda_global_ibif,demanda_global_ibif_equipo_durable_produccion,demanda_global_ibif_equipo_durable_produccion_nacional,demanda_global_ibif_equipo_durable_produccion_importado,dg_ibif_equipo_durable_prod_maquinaria_equipo_total,dg_ibif_equipo_durable_prod_maquinaria_equipo_nacional,dg_ibif_equipo_durable_prod_maquinaria_equipo_importado,dg_ibif_equipo_durable_prod_material_transporte_total,dg_ibif_equipo_durable_prod_material_transporte_nacional,dg_ibif_equipo_durable_prod_material_transporte_importado,demanda_global_ibif_construccion,demanda_global_exportacion,demanda_global_total,discrepancia_estadistica_variacion_existencias
1993-01-01,216370.1113087696,20088.840935469663,236458.95224423928,152148.44603005194,28507.11689119814,37324.88922212806,13179.7340527462,8744.829774292823,4434.904278453392,9418.12212123793,5980.236446564116,3437.8856746738147,3761.6119315082856,2764.593327728708,997.0186037795772,24145.15516938185,15395.703312262156,236458.952244239,3082.7967885989638
1993-04-01,241871.85842410926,19957.874444182584,261829.73286829185,166025.8666900282,32816.2728159852,43955.97146223719,16698.58367027049,11286.852387554398,5411.731282716094,11619.379181522225,7327.207287915356,4292.171893606868,5079.204488748267,3959.6450996390417,1119.559389109225,27257.387791966696,17483.015221166188,261829.73286829185,1548.6066788750759
1993-07-01,242645.52236804363,23116.36374881223,265761.88611685584,166667.55025410926,33439.51911794199,48221.120699899046,18923.348810463704,12124.38847091269,6798.960339551013,12653.903130288278,7781.651178163464,4872.251952124812,6269.445680175428,4342.737292749227,1926.7083874262,29297.771889435346,16427.390007644834,265761.88611685584,1006.3060372607142
1993-10-01,245132.4288253676,24947.32087153553,270079.7496969031,169860.31097593182,33047.95898529155,50775.67582773134,20330.18438552445,12318.690885540695,8011.493499983759,13754.565758008883,7801.824336764372,5952.741421244509,6575.6186275155715,4516.866548776322,2058.752078739249,30445.491442206894,16057.731458926826,270079.7496969031,338.07244902156526
1994-01-01,232945.32572962885,27125.104690274253,260070.4304199031,164965.41955357065,29309.079780110147,45580.10404057278,18355.345275991425,9899.92835907642,8455.416916915005,13125.585826283723,6482.35983862202,6643.225987661704,5229.759449707701,3417.5685204543997,1812.1909292533012,27224.75876458136,16280.845958404847,260070.4304199031,3934.9810872446396
1994-04-01,257476.89464291523,25613.974527608618,283090.86917052383,177234.82787500566,32625.05623130794,51527.053036603465,20542.318128111943,12157.262345609472,8385.055782502472,13941.103351486418,7522.446623359143,6418.656728127276,6601.214776625523,4634.815722250329,1966.3990543751947,30984.734908491522,19756.171692958953,283090.86917052383,1947.7603346478136
1994-07-01,253467.77805494447,26868.952709295747,280336.7307642402,174510.1541288002,33287.32222009866,53181.91797468549,21886.064599647216,12799.821601667978,9086.242997979238,13605.843877047435,7555.399166773103,6050.4447102743325,8280.220722599783,5244.422434894876,3035.7982877049076,31295.853375038278,19584.11577619759,280336.7307642402,-226.77933554173796
1994-10-01,257341.5437177721,27121.00591159319,284462.54962936527,177721.80760236637,33157.75793089842,54636.625600299194,22023.695007200877,12534.624007802176,9489.0709993987,14140.388597241279,7640.119449221062,6500.269148020217,7883.306409959601,4894.504558581117,2988.801851378485,32612.93059309832,19740.477892964904,284462.54962936527,-794.119397163624
1995-01-01,237968.1031028784,26841.376991434918,264809.48009431333,164321.4801445123,28422.44326534897,46128.890915722346,17977.600566499277,10081.047996379019,7896.552570120259,12383.10752999339,6568.068226277436,5815.039303715952,5594.493036505887,3512.9797701015814,2081.5132664043063,28151.29034922307,21340.039225704768,264809.48009431333,4596.626543024962
1995-04-01,248093.6392800804,22176.033775373777,270269.67305545416,166567.4486126894,32937.08209123255,43399.78502960183,16237.565925941966,10061.35247149938,6176.213454442586,11374.264252686047,6840.550176126854,4533.714076559193,4863.301673255917,3220.8022953725254,1642.4993778833925,27162.219103659856,26471.627605493915,270269.67305545416,893.7297164364718
1995-07-01,242214.69911402545,22905.588287752616,265120.28740177804,164276.7365999691,32821.82855542973,44019.70046450238,16670.352658254917,10162.09538629385,6508.257271961069,11545.84495816468,7061.661369683035,4484.183588481645,5124.507700090237,3100.4340166108127,2024.0736834794247,27349.347806247457,22733.604741654664,265120.28740177804,1268.417040222179
1995-10-01,244467.96458085737,24339.518068931615,268807.48264978896,168866.51986779264,35174.24273291872,44564.73344198194,17183.86871916108,9802.241167211621,7381.627551949458,12716.735456985938,6994.981128989131,5721.754327996806,4467.1332621751435,2807.2600382224914,1659.873223952652,27380.86472282086,21793.913378174297,268807.48264978896,-1591.926771078637
1996-01-01,236566.03658388328,25583.854306003923,262149.89088988723,164311.5718029665,29323.30113097262,41460.148860467394,15485.810153465973,8590.593369171262,6895.216784294711,11504.910587937298,6367.644601575765,5137.265986361534,3980.8995655286762,2222.948767595498,1757.9507979331786,25974.338707001425,21991.15297083769,262149.89088988723,5063.716124643019
1996-04-01,260751.92515896022,26398.68975506605,287150.6149140263,175591.87776129207,33525.55372545682,47590.74952558124,19426.083742973875,10875.89907963536,8550.184663338518,13346.897320047721,7614.197254203605,5732.7000658441175,6079.186422926154,3261.701825431754,2817.4845974944005,28164.665782607357,25887.605875385507,287150.6149140263,4554.828026310628
1996-07-01,262166.9637853111,30597.562109442457,292764.5258947535,177726.97152190848,33845.88909241746,51557.602234511,20733.4511114369,11392.400734460434,9341.050376976467,14141.483065562235,7828.301099751228,6313.181965811007,6591.968045874666,3564.0996347092055,3027.8684111654616,30824.151123074098,26008.54145265656,292764.5258947535,3625.521593260026
1996-10-01,267020.046695234,30556.35313820448,297576.3998334385,183153.03678708282,35467.47540362402,53326.9443655179,21400.175575407928,11175.625815568294,10224.549759839636,15366.328336352286,7817.884443802729,7548.443892549558,6033.847239055643,3357.741371765565,2676.105867290077,31926.76879010997,25512.872435268357,297576.3998334385,116.07084194538766
1997-01-01,256387.8566946177,32680.280633803606,289068.1373284213,177490.01868933268,29913.69237868663,48510.92171112048,19329.828385521087,9204.033192477778,10125.795193043308,13156.980533694696,6364.798061856779,6792.182471837917,6172.84785182639,2839.2351306209985,3333.6127212053916,29181.093325599395,25143.986112391995,289068.1373284213,8009.5184368895425
1997-04-01,281769.80075624137,34175.0782824445,315944.8790386859,191310.69047972778,34961.440220308825,56800.22309692872,23673.208948365675,11649.533321539453,12023.675626826222,15661.623084065668,7735.153682438586,7926.469401627082,8011.585864300007,3914.3796391008664,4097.20622519914,33127.01414856304,29383.054200338134,315944.8790386859,3489.4710413823777
1997-07-01,284092.2674777865,38589.2405567682,322681.5080345547,195505.52298172322,34107.318043400424,60488.60322405907,25473.97631903884,12089.277074547485,13384.699244491354,17225.991274820943,7781.8695364405485,9444.121738380392,8247.985044217898,4307.407538106937,3940.5775061109616,35014.62690502024,29090.15084683775,322681.5080345547,3489.912938534282
1997-10-01,287515.34556087526,38093.38442485679,325608.72998573206,199383.50581606472,37434.8425598751,62390.250249959274,26359.722235663477,12567.293240730294,13792.428994933183,18319.752330361356,8378.651718324549,9941.100612036806,8039.969905302124,4188.6415224057455,3851.328382896378,36030.52801429579,27887.377922849937,325608.72998573206,-1487.24656301699
1998-01-01,271702.3676818334,38206.60428297939,309908.9719648128,187196.67776497433,30365.003472407225,57077.17902239907,24438.45784063368,10827.50702953612,13610.950811097562,16809.53811390009,7353.907733630895,9455.630380269196,7628.919726733591,3473.599295905225,4155.320430828367,32638.721181765384,27854.025497495306,309908.9719648128,7416.086207536835
1998-04-01,301207.59782335535,39125.655153566404,340333.25297692174,202675.18316639485,36014.655235376435,62699.41939493378,27324.891674456947,12576.266042954314,14748.625631502633,17867.38506230969,8144.754008435481,9722.63105387421,9457.50661214726,4431.512034518833,5025.994577628424,35374.52772047683,34143.98757421245,340333.25297692174,4800.00760600419
1998-07-01,293315.4036407702,41378.9986673454,334694.40230811556,200922.4258292507,36982.79559224443,62903.41054807594,26081.892121206933,11965.292164268256,14116.599956938679,16704.440777801923,7762.1803113437845,8942.260466458138,9377.451343405011,4203.11185292447,5174.339490480541,36821.518426869006,32622.925369406134,334694.40230811556,1262.8449691384158
1998-10-01,286267.8492849366,36903.909346333094,323171.7586312697,199434.2633546583,37634.20368144019,60442.66907806093,24195.842643192198,11162.194615727116,13033.648027465082,16473.75011814557,7382.014510852358,9091.735607293213,7722.092525046626,3780.1801048747566,3941.912420171869,36246.82643486873,28729.199429836404,323171.7586312697,-3068.576912726159
1999-01-01,265024.63589177164,33820.76983765678,298845.4057294284,185463.05639695463,31328.253794564396,48383.924142538046,19046.3723147504,9021.69994435116,10024.672370399237,13273.78295711842,6353.474657959239,6920.308299159179,5772.589357631978,2668.22528639192,3104.3640712400584,29337.551827787647,27990.54564314255,298845.4057294284,5679.625752228778
1999-04-01,286412.3269114947,32086.200484247423,318498.52739574213,195463.39914710794,36596.380926096914,53304.48613233441,21191.180611232616,10002.522190548323,11188.658420684293,13932.903948233008,6492.582430540181,7440.321517692826,7258.276662999608,3509.939760008142,3748.336902991466,32113.305521101796,33050.794183278806,318498.52739574213,83.46700692406739
1999-07-01,278472.6934802327,36499.152086546834,314971.8455667795,194457.7322257324,37667.8374009207,54757.5744285099,23493.934808578953,10968.613121379385,12525.321687199568,14591.218974692194,6112.676250998597,8478.542723693596,8902.715833886761,4855.936870380788,4046.778963505973,31263.639619930946,30902.819472814605,314971.8455667795,-2814.1179611980915
1999-10-01,283566.3992033724,35676.243272293206,319242.6424756656,199054.2694356489,39100.8907095027,56019.27712716781,22956.837060354694,11271.572222029368,11685.264838325325,15094.660164418503,6552.335487810998,8542.324676607506,7862.176895936191,4719.236734218372,3142.940161717819,33062.44006681311,29851.423831844164,319242.6424756656,-4783.218628497969
2000-01-01,264555.9180689421,34191.083803431655,298747.00187237374,186315.12874911173,31650.7528943635,45938.12390822209,17897.80327721628,8564.862592602749,9332.940684613532,12357.678163606924,5325.944101014295,7031.73406259263,5540.125113609357,3238.9184915884543,2301.2066220209026,28040.320631005812,28975.770885384314,298747.00187237374,5867.225435292086
2000-04-01,285275.1759034484,33272.293822135936,318547.4697255844,195338.7358632991,36688.575429462886,49232.44084967454,19662.191149355545,9507.127124426155,10155.06402492939,13621.892405275412,6214.151321372808,7407.741083902603,6040.298744080133,3292.9758030533467,2747.322941026786,29570.249700318993,34028.5681388485,318547.4697255844,3259.1494442993717
2000-07-01,276767.9710448898,35681.01554411219,312448.986589002,193972.6085119134,38276.03151699067,50994.54763785271,20794.707387121765,9196.895733444471,11597.811653677296,15105.792961629166,5935.016554475058,9170.776407154108,5688.914425492601,3261.8791789694137,2427.035246523188,30199.840250730947,31357.304185582332,312448.986589002,-2151.5052633371088
2000-10-01,278091.6763933199,34720.398038316074,312812.07443163596,193703.3800690873,38912.96490872932,51843.46038528859,20563.192355998202,9643.089097769296,10920.103258228904,14660.361831135095,6527.677430174017,8132.684400961079,5902.830524863106,3115.4116675952796,2787.4188572678263,31280.268029290386,30725.33325456081,312812.07443163596,-2373.0641860300384
2001-01-01,259199.87389432208,34454.688590629696,293654.5624849518,182900.18713991283,31806.39916694484,41580.293755659215,15436.201303120582,7026.66857095811,8409.532732162472,11502.039609633754,5123.044204641834,6378.995404991921,3934.161693486827,1903.624366316276,2030.537327170551,26144.092452538633,29178.41762655138,293654.5624849518,8189.26479588353
2001-04-01,284795.76294893,31884.942668225307,316680.7056171553,191297.58004512877,36842.86013489857,46196.31032843665,16880.084071962818,7709.162383450677,9170.921688512142,12416.269355227494,5685.4703599675195,6730.798995259975,4463.814716735326,2023.6920234831575,2440.1226932521686,29316.22625647383,35589.79054373384,316680.7056171553,6754.164564957464
2001-07-01,263126.50540141005,29291.709882911236,292418.2152843213,181090.98254415535,37468.73630510775,42220.2091598934,14667.154865073866,7206.321774359554,7460.833090714311,10856.459886609351,5205.760288769306,5650.699597840046,3810.694978464512,2000.5614855902486,1810.1334928742638,27553.054294819533,33135.40727175868,292418.2152843213,-1497.1199965938868
2001-10-01,248864.5552226069,23006.023754288577,271870.5789768955,169871.18500369706,36398.76195520983,37001.53757089564,12168.101618179957,6797.793255641432,5370.308362538525,9445.64961421043,5254.381376356761,4191.268237853667,2722.452003969528,1543.41187928467,1179.040124684858,24833.435952715685,30611.983410643144,271870.5789768955,-2012.888963550191
2002-01-01,216849.49496894173,14676.501694653289,231525.99666359503,148507.39184523403,29413.598785648304,22718.815179039088,7061.077433609034,4759.595227269476,2301.482206339559,5237.027471587617,3634.0904715797797,1602.9370000078372,1824.0499620214182,1125.5047556896966,698.5452063317217,15657.737745430053,30821.96388171965,231525.99666359503,64.22697195395449
2002-04-01,246314.6331906621,14028.269828751949,260342.90301941405,158475.55365644122,35292.592668080084,26310.997530643916,8235.086772928898,6085.38353678044,2149.703236148458,6013.93205021617,4806.103246211436,1207.828804004734,2221.1547227127285,1279.2802905690044,941.8744321437241,18075.910757715017,35036.07529626281,260342.90301941405,5227.683867986016
2002-07-01,237416.86675484385,14783.03421531903,252199.90097016288,156093.85809031097,34921.821388576194,26713.598464007293,8027.981572434297,5852.70240724881,2175.279165185487,6418.981789662244,4838.553587256371,1580.4282024058728,1608.999782772053,1014.1488199924391,594.850962779614,18685.616891572994,34260.38437309929,252199.90097016288,210.2386541691376
2002-10-01,240361.39209718027,15760.223408624204,256121.61550580448,157992.2662024158,35651.54529857068,30388.085537680017,9675.469318666002,6993.286156303094,2682.1831623629087,7366.392752622812,5708.6074871001065,1657.7852655227052,2309.0765660431903,1284.678669202987,1024.3978968402032,20712.616219014017,32372.105202182058,256121.61550580448,-282.3867350440778
2003-01-01,228595.88241942448,16875.073546560026,245470.9559659845,153188.3371884757,29350.73535745025,27659.22272249413,8651.071095010278,5741.708037305654,2909.3630577046238,6438.334854548226,4544.031800607076,1894.3030539411504,2212.7362404620512,1197.6762366985781,1015.0600037634731,19008.151627483854,32379.77731801933,245470.9559659845,2892.883379545081
2003-04-01,265402.47765241284,19109.61680382683,284512.09445623966,169567.3578726732,36593.906424201115,35023.83820646879,11240.015807443317,7151.575871870047,4088.439935573269,8349.286412841157,5579.259689181611,2770.0267236595464,2890.729394602158,1572.3161826884357,1318.4132119137225,23783.82239902547,37787.55882081625,284512.09445623966,5539.433132080303
2003-07-01,261534.5226313679,21609.04288880181,283143.56552016974,172253.98765545845,35568.375967198226,38706.85250238051,12443.727050879645,7217.611848882729,5226.115201996916,9229.006776371683,5548.977913737627,3680.0288626340557,3214.720274507961,1668.6339351451015,1546.08633936286,26263.12545150087,36102.2127034663,283143.56552016974,512.1366916662519
2003-10-01,268560.96679735876,23911.038404126382,292472.0052014851,176794.3298877267,35742.73432091392,45247.92281110809,15604.416362832731,8971.943134996556,6632.473227836175,11861.92749960908,6894.749588360259,4967.177911248822,3742.4888632236516,2077.193546636298,1665.2953165873537,29643.506448275355,34164.275083669825,292472.0052014851,522.7430980665958
2004-01-01,254330.4234233226,26291.994922274567,280622.41834559717,171056.27181567802,29591.367105465986,41571.380200011576,15419.205694622338,7462.902556308209,7956.30313831413,10112.235337364877,5606.702351539687,4505.532985825189,5306.970357257462,1856.2002047685214,3450.7701524889408,26152.174505389237,34870.23575549992,280622.41834559717,3533.1634689416605
2004-04-01,284375.6105687055,27229.704716547738,311605.3152852532,183635.13319575798,36309.597487513354,47908.30636668227,17353.586519792007,9004.958896091997,8348.627623700007,12062.823853267855,6568.065241555701,5494.200276503763,5291.287142190346,2436.893654536296,2854.3930642478376,30554.719846890268,37730.27113233003,311605.3152852532,6022.007102969583
2004-07-01,284392.05993721937,29858.264706923987,314250.32464414334,187557.70256934137,37029.37544976149,51702.47231859209,19440.93262591565,9199.27267396574,10241.659951949914,13450.134748476186,6872.143005790231,6577.991742685956,5990.797877439467,2327.1296681755084,3663.6682092639585,32261.539692676437,39415.53532526651,314250.32464414334,-1454.7610188181134
2004-10-01,293467.0605976495,30825.972437104978,324293.03303475445,193373.7190973536,38056.02446957372,55936.05109827795,20755.496314559325,10027.51793129696,10727.978383262365,15198.638669714968,7705.776966600326,7492.861703114643,5556.8576448443555,2321.7409646966344,3235.116680147721,35180.554783718624,39812.80403067132,324293.03303475445,-2885.5656611221493
2005-01-01,274594.5025684537,30409.803080959886,305004.3056494136,184976.30132665296,31238.676132194672,47158.78340735214,17966.502946278237,8201.79639267031,9764.706553607926,12192.107747566472,5833.553529595033,6358.554217971439,5774.395198711763,2368.2428630752775,3406.1523356364864,29192.280461073904,40648.22828733991,305004.3056494136,982.3164958739362
2005-04-01,313927.2903394956,35329.928562086905,349257.21890158247,203728.81674234848,38280.80726428248,59862.8468586942,23367.590222103638,10295.142346199875,13072.447875903763,14806.131264874533,7228.746244356236,7577.385020518298,8561.458957229104,3066.3961018436385,5495.062855385466,36495.256636590566,43953.25411348334,349257.21890158247,3431.4939227739596
2005-07-01,310593.0804809617,35182.512805771985,345775.5932867337,203814.84965915742,39459.26298194008,63851.48690720269,24176.42709691677,10661.028398943463,13515.398697973309,16800.699131451813,7669.989035683812,9130.710095768,7375.727965464961,2991.039363259651,4384.6886022053095,39675.05981028592,44719.47099547281,345775.5932867337,-6069.477257039289
2005-10-01,319939.2408122709,36283.37930579783,356222.62011806876,208747.14220467376,40631.50749336139,70960.65395395766,26780.50872467034,12626.667258614047,14153.841466056294,18245.985661657774,9333.132840084761,8912.852821573015,8534.523063012564,3293.5344185292856,5240.988644483279,44180.14522928733,43011.49664053404,356222.62011806876,-7128.180174458088
2006-01-01,298695.5617418255,35823.52720905278,334519.08895087824,200565.51416878836,33816.64466975643,57963.26590453346,22333.457553317483,9384.2700541116,12949.187499205884,15201.298677432902,6512.1463478454225,8689.15232958748,7132.158875884582,2872.1237062661776,4260.035169618404,35629.80835121597,43268.123015585494,334519.08895087824,-1094.4588077855078
2006-04-01,338243.7275143869,37721.695567780764,375965.42308216763,219462.4422771453,40509.921888539044,71049.56236273813,26076.614382604686,11440.17135399388,14636.443028610807,17501.335508414697,8034.49485457186,9466.840653842835,8575.278874189991,3405.67649942202,5169.602374767972,44972.947980133446,45716.31526575513,375965.42308216763,-772.8187120099828
2006-07-01,337741.8852127778,42282.261486337535,380024.14669911534,218509.9003195827,40688.20340099723,77256.32589672878,29807.986050466185,11874.382701319468,17933.603349146717,19977.87456635591,8481.17136469432,11496.703201661589,9830.111484110275,3393.211336625147,6436.900147485128,47448.3398462626,47480.62099127687,380024.14669911534,-3910.903909470231
2006-10-01,347578.70741992583,42474.18962008555,390052.89704001136,224988.5607295176,42445.48934851137,79483.53524120129,30380.168908144624,14150.811860033402,16229.357048111222,21128.180739320476,10290.705393058743,10837.475346261734,9251.988168824148,3860.1064669746593,5391.881701849488,49103.366333056656,48501.740141888295,390052.89704001136,-5366.428421107194
2007-01-01,322448.8711686443,43219.75700311963,365668.6281717639,218515.53512598082,35984.63636345336,65877.56714024529,27312.57424066642,10366.937864477597,16945.636376188824,18250.177224719846,7112.429510044291,11137.747714675555,9062.397015946573,3254.5083544333047,5807.888661513269,38564.99289957886,47161.89976062561,365668.6281717639,-1871.0102185411743
2007-04-01,367492.3516652982,44852.32728607511,412344.6789513733,238547.45140000514,43360.58126556292,80037.41677672163,31811.560082474498,12957.45693401247,18854.10314846203,21645.280588754806,8982.770811313212,12662.509777441594,10166.279493719694,3974.6861226992582,6191.593371020435,48225.85669424712,49701.247759025435,412344.6789513733,697.9817500582067
2007-07-01,367538.72761594085,50292.65916323759,417831.38677917846,237975.91363453947,43806.79536618658,87287.4332684864,36749.88131319398,13294.218377394976,23455.662935799002,24726.46284929861,9357.607965377067,15368.85488392154,12023.418463895374,3936.6104120179107,8086.808051877462,50537.55195529243,51286.51588429324,417831.38677917846,-2525.271374327247
2007-10-01,379199.6613356005,52376.92280479301,431576.5841403935,245923.67975287422,46213.05093664125,91547.49359631276,37279.94283816436,16243.456526105372,21036.486312058987,24811.48047567222,11428.012472762806,13383.468002909412,12468.46236249214,4815.444053342567,7653.018309149574,54267.550758148405,53635.15244122456,431576.5841403935,-5742.792586659329
2008-01-01,349945.32291648467,52781.69822179888,402727.02113828354,236761.556087136,38371.612976993565,79279.4993625643,36804.016182968146,12000.912002868716,24803.104180099428,22695.521484266672,8085.985963127764,14609.535521138905,14108.494698701475,3914.926039740952,10193.568658960523,42475.48317959615,50055.44335816695,402727.02113828354,-1741.0906465772787
2008-04-01,396227.24006983626,55887.55751029492,452114.7975801312,256321.62200381953,46709.03681587836,91079.93841626588,39290.95494776439,14299.231637599474,24991.723310164918,26179.363447805852,9601.266091507547,16578.097356298305,13111.591499958544,4697.9655460919275,8413.625953866616,51788.983468501494,48926.95755140224,452114.7975801312,9077.242792765202
2008-07-01,393039.22996378446,57048.65251262718,450087.88247641164,254163.1949055695,46537.73621636907,94665.42172666088,42709.21285347399,14750.130715178459,27959.082138295533,28484.582719503418,10171.757062589684,18312.825656913734,14224.630133970573,4578.373652588774,9646.256481381799,51956.208873186886,57518.38651213077,450087.88247641164,-2796.8568843185712
2008-10-01,394564.94005056686,51906.82843282548,446471.7684833923,255268.77958348344,49424.748405946586,89187.75328320285,35994.825039810865,14738.015562886929,21256.80947692394,24091.43130409439,11106.561927046338,12984.869377048053,11903.393735716478,3631.453635840592,8271.940099875885,53192.92824339198,47618.9678003011,446471.7684833923,4971.519410458328